Погода в Ражево

Россия / Тюменская область     56°09′00″N   68°23′01″E
темп.,
°C
ветер,
м/с
пор.,
м/с
влажн.,
%
обл.,
%
осадки,
мм/ч
давл.,
гПа
погр.,
м
4 марта, чт
чт423:00−6ююз41095100 0.1 1003321
02:00−6ююз4109596 0.1 1002319
05:00−5ююз5119595 0.4 1001433
08:00−4ююз51095100 0.3 1000424
11:00−2ююз5894100 0.4 999553
14:00−1юз5796100 0.4 997614
17:00−1зюз4890100 0.6 997489
20:00−6зюз499393 0.0 997189
5 марта, пт
пт523:00−8зюз6129261 0.0 999343
02:00−10зюз6129294 0.0 1001288
05:00−13ююз5109247 0.0 1002169
08:00−10ююз71494100 0.3 1001615
11:00−6юз91591100 0.9 1000967
14:00−1юз91688100 0.3 9991443
17:00−1зюз71580100 0.9 10011231
20:00−2юз71589100 0.1 1001638
6 марта, сб
сб623:00−2юз61294100 0.3 1002572
02:00−3зюз4993100 0.8 1002346
05:00−7зюз4109099 0.8 1004210
08:00−8зюз51090100 0.0 1004350
11:00−8з61086100 0.0 1005537
14:00−7з711810 0.0 1007731
17:00−9зюз511830 0.0 1009513
20:00−13зюз513880 0.0 1010266
7 марта, вс
вс723:00−15юз48950 0.0 1011132
02:00−15юз349477 0.0 101070
05:00−14ююз239388 0.0 100950
08:00−12ю1195100 0.3 100761
11:00−9с1190100 0.6 1007251
14:00−8с2387100 0.0 1007503
17:00−9с2391100 0.1 1007117
20:00−13сз2393100 0.0 100924
8 марта, пн
пн823:00−17зсз239363 0.0 101220
02:00−19з22900 0.0 101220
05:00−19юз22946 0.0 101420
08:00−18ююз349218 0.0 101446
11:00−12ююз359116 0.0 1015254
14:00−9ю468874 0.0 1014415
17:00−10ю499087 0.0 1013365
20:00−11ю51191100 0.0 1013335